Total_Precipitation_Accumulation
1.28 1.24 1.34 1.59 1.69 1.76 2.00 2.13 2.00 1.94 1.90 1.80 1.64 1.50 1.39 1.29 1.28 1.26 1.64 2.12 2.62 3.19 3.65 3.58 3.15 2.64 2.47 2.60 2.55 2.44 2.35 2.56 3.16 3.32 3.26 3.22 3.09 3.08 2.83 2.48 2.22 2.15 2.14
1.28 1.31 1.27 1.44 1.72 1.81 1.88 1.91 1.86 1.91 1.88 1.83 1.69 1.62 1.56 1.35 1.44 1.43 1.52 1.60 1.85 2.33 3.07 3.51 3.30 2.85 2.65 2.62 2.52 2.46 2.36 2.41 3.04 3.33 3.35 3.28 3.17 3.17 2.78 2.43 2.34 2.23 2.25
1.29 1.29 1.20 1.31 1.57 1.79 1.86 1.87 1.84 1.92 1.81 1.67 1.69 1.69 1.64 1.52 1.56 1.60 1.56 1.54 1.47 1.75 2.38 3.06 3.20 3.05 2.98 3.01 2.79 2.65 2.58 2.67 2.84 3.14 3.31 3.33 3.24 3.08 2.70 2.40 2.20 2.25 2.32
1.27 1.37 1.30 1.27 1.46 1.72 1.98 2.15 2.04 1.99 1.93 1.80 1.82 1.78 1.65 1.67 1.66 1.65 1.59 1.59 1.61 1.50 1.70 2.05 2.44 2.88 3.08 3.27 3.13 2.96 2.68 2.44 2.42 2.73 3.05 3.27 3.33 3.11 2.98 2.68 2.36 2.33 2.50
1.20 1.42 1.55 1.47 1.52 1.75 1.89 2.00 2.06 1.96 1.94 1.87 1.73 1.69 1.60 1.68 1.74 1.58 1.57 1.57 1.63 1.60 1.54 1.39 1.57 1.97 2.52 3.23 3.41 3.09 2.88 2.57 2.33 2.42 2.69 3.02 3.25 3.15 3.03 2.80 2.52 2.33 2.41
1.41 1.56 1.69 1.70 1.73 1.86 1.89 2.09 2.35 2.20 1.99 1.92 1.75 1.65 1.60 1.62 1.64 1.63 1.69 1.68 1.67 1.65 1.61 1.45 1.38 1.29 1.67 2.40 3.02 2.95 3.00 2.85 2.51 2.40 2.54 2.67 2.88 3.04 2.81 2.74 2.72 2.49 2.35
1.70 1.83 1.92 1.99 1.95 1.88 1.97 2.17 2.61 2.58 2.27 2.02 1.99 1.87 1.74 1.67 1.69 1.64 1.77 1.85 1.74 1.69 1.72 1.64 1.47 1.33 1.25 1.43 2.00 2.60 2.86 3.06 2.88 2.64 2.59 2.69 2.74 2.95 2.84 2.67 2.84 2.81 2.65
1.83 1.90 2.09 2.21 2.17 2.16 2.24 2.32 2.63 2.85 2.61 2.39 2.40 2.58 2.33 2.10 1.75 1.48 1.52 1.62 1.66 1.70 1.68 1.69 1.58 1.44 1.39 1.32 1.27 1.80 2.31 2.71 2.96 2.83 2.69 2.70 2.78 2.93 3.02 2.94 2.92 3.07 3.00
2.02 1.99 2.05 2.24 2.26 2.26 2.33 2.55 2.86 3.23 3.22 2.90 2.65 2.87 2.64 2.34 2.22 1.70 1.38 1.42 1.56 1.67 1.69 1.75 1.70 1.56 1.51 1.53 1.35 1.26 1.52 1.98 2.64 2.94 2.95 2.90 2.88 2.93 3.02 3.09 3.25 3.20 3.20
1.94 1.94 2.01 2.18 2.36 2.50 2.64 2.69 2.67 3.12 3.48 3.30 3.06 2.67 2.37 2.24 2.38 2.23 1.73 1.42 1.46 1.51 1.57 1.58 1.68 1.75 1.68 1.62 1.50 1.14 1.08 1.39 2.20 2.99 3.26 3.10 2.92 2.87 3.10 3.27 3.33 3.10 3.00
2.08 1.97 1.97 2.01 2.06 2.18 2.34 2.49 2.56 2.82 3.09 3.29 3.26 3.02 2.70 2.50 2.06 2.07 2.13 1.87 1.59 1.37 1.36 1.49 1.67 1.74 1.72 1.61 1.61 1.27 1.05 1.01 1.41 2.24 2.95 3.17 3.11 3.06 3.27 3.38 3.21 3.02 2.88
2.08 1.94 1.85 1.91 1.93 1.94 2.08 2.21 2.34 2.63 2.86 3.02 3.10 3.00 2.88 2.80 2.48 2.18 2.00 1.96 1.81 1.57 1.41 1.41 1.49 1.58 1.64 1.57 1.45 1.44 1.21 0.98 1.00 1.30 1.86 2.54 2.87 2.99 3.14 3.25 3.18 2.99 3.05
1.65 1.61 1.53 1.56 1.68 1.75 1.92 2.00 1.97 2.06 2.27 2.50 2.70 2.77 2.80 2.67 2.58 2.49 2.33 2.09 1.83 1.51 1.49 1.40 1.38 1.49 1.52 1.61 1.56 1.69 1.31 1.06 0.97 1.00 1.22 1.57 1.94 2.30 2.72 2.95 3.15 3.19 3.26
1.31 1.26 1.25 1.26 1.31 1.38 1.58 1.81 1.83 1.85 1.94 2.05 2.13 2.43 2.61 2.57 2.58 2.36 2.24 2.28 2.02 1.68 1.50 1.31 1.20 1.25 1.33 1.46 1.73 1.82 1.31 1.19 1.00 1.02 1.11 1.13 1.30 1.50 1.91 2.39 2.65 2.87 3.03
1.03 1.01 1.06 1.15 1.20 1.19 1.28 1.43 1.63 1.70 1.79 1.88 1.88 2.06 2.23 2.32 2.31 2.14 2.17 2.26 2.17 1.86 1.62 1.44 1.35 1.26 1.25 1.31 1.62 1.50 1.33 1.28 1.16 1.11 1.07 1.05 1.07 1.13 1.32 1.60 1.87 2.03 2.16
0.91 0.92 0.92 0.98 1.05 1.08 1.16 1.27 1.32 1.42 1.53 1.71 1.88 2.01 2.05 2.10 2.16 2.07 2.05 2.16 2.14 1.96 1.71 1.48 1.32 1.25 1.30 1.24 1.44 1.34 1.43 1.50 1.19 1.06 1.01 1.03 1.00 0.95 0.92 1.02 1.18 1.34 1.43
0.76 0.75 0.80 0.91 0.95 0.97 1.01 1.01 1.05 1.11 1.19 1.32 1.39 1.54 1.77 1.97 2.06 2.04 2.09 2.14 2.15 2.01 1.75 1.59 1.35 1.31 1.42 1.36 1.37 1.33 1.44 1.48 1.23 1.12 0.98 0.93 0.94 0.89 0.87 0.86 0.88 0.96 1.07
0.72 0.72 0.79 0.85 0.86 0.93 0.96 0.93 0.94 1.01 1.12 1.22 1.24 1.27 1.40 1.66 1.83 1.92 2.00 2.02 2.09 2.05 1.86 1.82 1.72 1.48 1.40 1.37 1.48 1.58 1.53 1.51 1.43 1.41 1.26 1.05 0.97 0.94 0.89 0.86 0.83 0.81 0.83
0.89 0.90 0.89 0.92 0.89 0.92 0.93 0.91 0.93 0.98 1.01 1.07 1.12 1.13 1.25 1.37 1.52 1.62 1.71 1.82 1.89 2.01 1.99 1.82 1.86 1.78 1.54 1.49 1.50 1.60 1.68 1.79 1.64 1.57 1.60 1.42 1.21 1.11 1.02 0.95 0.88 0.85 0.84
0.79 0.80 0.88 0.94 1.01 1.06 1.04 0.99 0.99 1.01 0.96 0.98 1.04 1.11 1.16 1.19 1.36 1.58 1.68 1.76 1.80 1.90 2.02 1.96 1.89 1.84 1.69 1.61 1.59 1.63 1.80 1.92 1.90 1.65 1.53 1.46 1.39 1.28 1.17 1.07 0.98 0.95 0.93
0.68 0.68 0.77 0.85 0.94 1.03 1.08 1.08 0.95 0.86 0.87 0.93 0.93 0.92 1.01 1.12 1.22 1.43 1.53 1.76 1.80 1.93 2.00 2.04 1.94 1.76 1.65 1.61 1.57 1.55 1.73 1.96 2.02 1.91 1.75 1.52 1.40 1.23 1.14 1.11 1.10 1.08 1.04
0.68 0.66 0.68 0.66 0.69 0.73 0.93 0.93 0.82 0.71 0.75 0.87 0.93 0.92 0.92 0.99 1.06 1.13 1.18 1.41 1.62 1.77 1.89 1.89 1.89 1.74 1.59 1.54 1.64 1.67 1.71 1.81 1.94 1.90 1.72 1.75 1.65 1.44 1.28 1.14 1.22 1.29 1.27
0.67 0.66 0.60 0.54 0.56 0.62 0.68 0.65 0.71 0.69 0.70 0.77 0.86 0.95 1.00 0.98 1.04 1.12 1.14 1.22 1.31 1.38 1.54 1.66 1.68 1.60 1.57 1.52 1.62 1.68 1.69 1.64 1.57 1.66 1.63 1.74 1.75 1.57 1.37 1.26 1.29 1.25 1.24
0.63 0.67 0.60 0.56 0.60 0.61 0.64 0.67 0.69 0.67 0.78 0.85 0.86 0.86 0.99 1.04 1.08 1.24 1.24 1.33 1.27 1.18 1.20 1.28 1.43 1.48 1.43 1.51 1.61 1.81 1.91 1.78 1.64 1.66 1.65 1.61 1.56 1.48 1.33 1.29 1.32 1.17 1.13
0.60 0.54 0.56 0.69 0.70 0.71 0.81 0.74 0.65 0.68 0.80 0.88 0.83 0.85 0.98 1.05 1.23 1.34 1.37 1.38 1.29 1.22 1.28 1.37 1.46 1.54 1.54 1.59 1.67 1.76 1.84 1.86 1.79 1.73 1.60 1.50 1.40 1.39 1.36 1.27 1.23 1.25 1.18
0.59 0.59 0.60 0.72 0.76 0.78 0.81 0.68 0.65 0.73 0.83 0.91 0.89 0.88 1.08 1.08 1.19 1.24 1.29 1.41 1.42 1.31 1.29 1.28 1.32 1.37 1.37 1.44 1.69 1.73 1.86 1.95 1.80 1.73 1.58 1.48 1.45 1.56 1.63 1.39 1.20 1.17 1.15